Regional Weather Roundup
Issued by NWS

Home | Current Version | Previous Version | Graphics & Text | Print | Product List | Glossary On
Versions: 1 2 3 4 5 6 7 8 9 10 11 12 13 14 15 16 17 18 19 20 21 22 23 24 25 26 27 28 29 30 31 32 33 34 35 36 37 38 39 40 41 42 43 44 45 46 47 48 49 50
000
ASUS45 KABQ 032301
RWRNM
NEW MEXICO REGIONAL WEATHER ROUNDUP
NATIONAL WEATHER SERVICE ALBUQUERQUE NM
500 PM MDT THU SEP 03 2015

NOTE: "FAIR" MEANS FEW OR NO CLOUDS BELOW 12,000 FEET AGL WITH NO
       SIGNIFICANT WEATHER OR OBSTRUCTIONS TO VISION.

      THIS PRODUCT IS RELEASED AS TWO VERSIONS.  ONE VERSION NEAR
      THE TOP OF THE HOUR CONTAINING PRELIMINARY DATA FROM ALBUQUERQUE
      AND OTHER STATIONS.  A FINAL VERSION WITH ADDITIONAL DATA IS
      ISSUED ABOUT 10 MINUTES AFTER THE HOUR.

NMZ501-503-504-510>518-040000-
NORTHWEST PLATEAU/NORTHCENTRAL MOUNTAINS

CITY           SKY/WX    TMP DP  RH WIND       PRES   REMARKS
FARMINGTON     SUNNY     85  35  16 W10G22    30.02F
SANTA FE       MOSUNNY   84  40  21 W10G22    30.07F
TAOS           PTSUNNY   75  39  27 W10       30.15F
ANGEL FIRE     FAIR      69  43  39 W14G21    30.23F

$$
NMZ402-403-502-505>509-040000-
WESTCENTRAL MOUNTAINS/SOUTHWEST MOUNTAINS

CITY           SKY/WX    TMP DP  RH WIND       PRES   REMARKS
GALLUP         PTSUNNY   78  40  25 W9G18     30.11F
SILVER CITY      N/A     77  48  36 NW13      30.11R

$$
NMZ407-409-411-412-040000-
SOUTHERN DESERTS

CITY           SKY/WX    TMP DP  RH WIND       PRES   REMARKS
DEMING         CLOUDY    86  52  30 SW12      30.02S
HOLLOMAN AFB   PTSUNNY   90  47  22 S10       29.95F
ALAMOGORDO     PTSUNNY   88  46  23 S7        29.98F
T OR C         CLOUDY    84  45  25 W8        30.01F

$$
NMZ519>523-040000-
CENTRAL VALLEYS/CENTRAL HIGHLANDS

CITY           SKY/WX    TMP DP  RH WIND       PRES   REMARKS
ALBUQUERQUE    MOSUNNY   86  42  21 SE6       30.02F
DOUBLE EAGLE   PTSUNNY   82  45  26 VRB7      30.06F
MORIARTY ARPT  FAIR      82  37  19 W6        30.10F
CLINES CORNERS MOSUNNY   76  41  28 SW8       30.14F
BELEN          FAIR      86  42  21 SE9       30.02F
SOCORRO        NOT AVBL

$$
NMZ524>526-539-540-040000-
SOUTHCENTRAL MOUNTAINS

CITY           SKY/WX    TMP DP  RH WIND       PRES   REMARKS
RUIDOSO        PTSUNNY   77  45  31 SW9G18    30.17F

$$
NMZ527>531-040000-
NORTHEAST HIGHLANDS/NORTHEAST PLAINS

CITY           SKY/WX    TMP DP  RH WIND       PRES   REMARKS
LAS VEGAS      MOSUNNY   81  43  26 SW15      30.10S
RATON          MOSUNNY   84  42  22 VRB7      30.01S
CLAYTON        SUNNY     88  47  24 S22G31    29.94F

$$
NMZ532>537-040000-
EASTCENTRAL PLAINS

CITY           SKY/WX    TMP DP  RH WIND       PRES   REMARKS
TUCUMCARI      MOSUNNY   95  44  17 SW21G28   29.90F
CANNON AFB     PTSUNNY   92  47  21 W10       29.94F
CLOVIS AIRPORT PTSUNNY   86  55  35 S18       29.97S

$$
NMZ028-029-538-040000-
SOUTHEAST PLAINS

CITY           SKY/WX    TMP DP  RH WIND       PRES   REMARKS
ROSWELL        PTSUNNY   94  46  19 SE9       29.91F
ARTESIA        PTSUNNY   93  50  22 S12       29.91S
CARLSBAD       PTSUNNY   96  47  18 SE12G21   29.88F
HOBBS          SUNNY     91  46  21 SE12G20   29.95F


$$



USA.gov is the U.S. government's official web portal to all federal, state and local government web resources and services.